HS8AFA Weather Reports


time (UTC)temp
F
wind
direction
speed
knots
gust
knots
rain 1hr
in
rain 24hr
in
rain mn
in
humidity
%
barometer
mb
20260503022016 90 313 1.7 35.6 0.00 0.00 0.00 100 1012.1
20260503021017 89 318 2.6 36.5 0.00 0.00 0.00 100 1012.1
20260503020038 89 318 1.7 36.5 0.00 0.00 0.00 100 1012.0
20260503015019 88 313 2.6 36.5 0.00 0.00 0.00 100 1011.9
20260503014020 87 308 2.6 36.5 0.00 0.00 0.00 100 1011.8
20260503013035 87 327 2.6 38.2 0.00 0.00 0.00 100 1011.7
20260503012037 86 314 2.6 40.0 0.00 0.00 0.00 100 1011.7
20260503011017 85 320 1.7 34.8 0.00 0.00 0.00 100 1011.7
20260503010018 85 315 1.7 35.6 0.00 0.00 0.00 100 1011.6
20260503005019 84 317 1.7 35.6 0.00 0.00 0.00 100 1011.3
20260503004020 83 311 1.7 28.7 0.00 0.00 0.00 100 1011.1
20260503003101 83 301 2.6 38.2 0.00 0.00 0.00 100 1011.1
20260503002016 82 317 2.6 37.4 0.00 0.00 0.00 100 1011.0
20260503001017 82 325 2.6 38.2 0.00 0.00 0.00 100 1010.9
20260503000018 82 304 1.7 34.8 0.00 0.00 0.00 100 1010.8
20260502235019 81 319 1.7 32.2 0.00 0.00 0.00 100 1010.6
20260502234020 81 315 2.6 37.4 0.00 0.00 0.00 100 1010.5
20260502233020 81 305 2.6 36.5 0.00 0.00 0.00 100 1010.4
20260502232016 81 302 1.7 35.6 0.00 0.00 0.00 100 1010.3
20260502231017 81 322 1.7 36.5 0.00 0.00 0.00 100 1010.1
20260502230018 81 321 2.6 40.0 0.00 0.00 0.00 100 1009.9
20260502225018 81 306 2.6 40.8 0.00 0.00 0.00 100 1009.8
20260502224040 81 311 1.7 13.0 0.00 0.00 0.00 100 1009.8
20260502223021 81 322 2.6 38.2 0.00 0.00 0.00 100 1009.7
20260502222015 82 306 2.6 39.1 0.00 0.00 0.00 100 1009.7
20260502221037 82 311 2.6 38.2 0.00 0.00 0.00 100 1009.7
20260502220018 82 320 2.6 37.4 0.00 0.00 0.00 100 1009.6
20260502215039 82 310 2.6 39.1 0.00 0.00 0.00 100 1009.5
20260502214019 82 306 1.7 11.3 0.00 0.00 0.00 100 1009.3
20260502213021 82 312 2.6 38.2 0.00 0.00 0.00 100 1009.2
20260502212020 82 306 2.6 39.1 0.00 0.00 0.00 100 1009.2
20260502211017 83 317 1.7 35.6 0.00 0.00 0.00 100 1009.1
20260502210158 83 304 2.6 36.5 0.00 0.00 0.00 100 1009.1
20260502205018 83 322 2.6 36.5 0.00 0.00 0.00 100 1009.0
20260502204018 83 313 2.6 38.2 0.00 0.00 0.00 100 1009.0
20260502203020 83 320 1.7 35.6 0.00 0.00 0.00 100 1009.0
20260502202021 83 304 2.6 38.2 0.00 0.00 0.00 100 1009.0
20260502201016 83 314 1.7 35.6 0.00 0.00 0.00 100 1009.1
20260502200017 83 308 2.6 39.1 0.00 0.00 0.00 100 1009.1
20260502195018 83 309 2.6 38.2 0.00 0.00 0.00 100 1009.1
20260502194018 83 312 2.6 37.4 0.00 0.00 0.00 100 1009.2
20260502193020 83 309 1.7 35.6 0.00 0.00 0.00 100 1009.3
20260502192020 83 308 2.6 36.5 0.00 0.00 0.00 100 1009.3
20260502191016 83 309 2.6 37.4 0.00 0.00 0.00 100 1009.4
20260502190017 84 320 1.7 33.9 0.00 0.00 0.00 100 1009.5
20260502185018 84 314 2.6 38.2 0.00 0.00 0.00 100 1009.5
20260502184018 84 317 1.7 29.5 0.00 0.00 0.00 100 1009.6
20260502183119 84 305 1.7 33.0 0.00 0.00 0.00 100 1009.8
20260502182020 84 317 1.7 35.6 0.00 0.00 0.00 100 1010.0
20260502181017 84 319 2.6 38.2 0.00 0.00 0.00 100 1010.2
20260502164018 85 319 2.6 37.4 0.00 0.00 0.00 100 1011.1
20260502163019 85 311 2.6 37.4 0.00 0.00 0.00 100 1011.2
20260502162100 85 307 2.6 39.1 0.00 0.00 0.00 100 1011.1
20260502161036 85 312 1.7 26.1 0.00 0.00 0.00 100 1011.2
20260502152020 87 313 2.6 36.5 0.00 0.00 0.00 100 1011.1
20260502151016 87 310 2.6 37.4 0.00 0.00 0.00 100 1010.9
20260502123020 89 307 1.7 28.7 0.00 0.00 0.00 100 1008.4
20260502122021 89 313 2.6 37.4 0.00 0.00 0.00 100 1008.2
20260502121016 89 308 2.6 37.4 0.00 0.00 0.00 100 1008.0
20260502115037 90 299 2.6 41.7 0.00 0.00 0.00 100 1007.8
20260502114018 90 298 2.6 36.5 0.00 0.00 0.00 100 1007.7
20260502113020 91 304 2.6 36.5 0.00 0.00 0.00 100 1007.6
20260502112020 92 312 2.6 37.4 0.00 0.00 0.00 100 1007.6
20260502111016 92 313 2.6 38.2 0.00 0.00 0.00 100 1007.5
20260502110018 93 320 1.7 12.2 0.00 0.00 0.00 100 1007.2
20260502105018 92 325 2.6 38.2 0.00 0.00 0.00 100 1007.0
20260502104018 93 327 1.7 34.8 0.00 0.00 0.00 100 1007.1
20260502103019 93 317 2.6 36.5 0.00 0.00 0.00 100 1007.1
20260502102019 93 319 2.6 38.2 0.00 0.00 0.00 100 1007.1
20260502101043 93 311 2.6 40.8 0.00 0.00 0.00 100 1007.0
20260502091021 93 320 2.6 40.0 0.00 0.00 0.00 100 1007.1
20260502071020 99 318 2.6 39.1 0.00 0.00 0.00 77 1008.7
20260502070016 99 325 2.6 39.1 0.00 0.00 0.00 73 1008.7
20260502065017 99 309 1.7 16.5 0.00 0.00 0.00 67 1008.9
20260502064038 98 315 1.7 34.8 0.00 0.00 0.00 67 1009.0
20260502063019 98 330 1.7 35.6 0.00 0.00 0.00 66 1009.1
20260502062019 98 323 1.7 27.8 0.00 0.00 0.00 68 1009.3
20260502061020 97 318 1.7 35.6 0.00 0.00 0.00 72 1009.5
20260502060016 97 308 2.6 40.0 0.00 0.00 0.00 74 1009.6
20260502055037 97 326 2.6 38.2 0.00 0.00 0.00 74 1009.8
20260502054017 96 322 1.7 35.6 0.00 0.00 0.00 77 1009.8
20260502053019 96 319 2.6 38.2 0.00 0.00 0.00 67 1009.9
20260502052039 97 311 2.6 38.2 0.00 0.00 0.00 64 1010.0
20260502051020 97 307 2.6 40.0 0.00 0.00 0.00 63 1010.0
20260502050015 96 316 2.6 37.4 0.00 0.00 0.00 68 1010.1
20260502045017 95 330 2.6 38.2 0.00 0.00 0.00 75 1010.2
20260502044018 94 306 2.6 37.4 0.00 0.00 0.00 76 1010.4
20260502043019 95 323 1.7 35.6 0.00 0.00 0.00 79 1010.6
20260502042020 95 321 1.7 35.6 0.00 0.00 0.00 82 1010.8
20260502041020 94 321 2.6 40.0 0.00 0.00 0.00 84 1011.0
20260502040016 94 321 1.7 35.6 0.00 0.00 0.00 84 1011.2
20260502035016 94 317 1.7 33.0 0.00 0.00 0.00 88 1011.3
20260502034017 94 324 2.6 37.4 0.00 0.00 0.00 97 1011.4
20260502033018 93 313 2.6 40.0 0.00 0.00 0.00 100 1011.5
20260502032019 93 322 1.7 27.8 0.00 0.00 0.00 100 1011.6
20260502031039 92 335 2.6 37.4 0.00 0.00 0.00 100 1011.7
20260502030020 91 323 1.7 35.6 0.00 0.00 0.00 100 1011.7
20260502025016 91 338 2.6 38.2 0.00 0.00 0.00 100 1011.7
20260502024017 91 341 2.6 36.5 0.00 0.00 0.00 100 1011.7
20260502023019 90 320 1.7 34.8 0.00 0.00 0.00 100 1011.7